Regional Weather Roundup
Issued by NWS

Home | Current Version | Previous Version | Text Only | Print | Product List | Glossary On
Versions: 1 2 3 4 5 6 7 8 9 10 11 12 13 14 15 16 17 18 19 20 21 22 23 24 25 26 27 28 29 30 31 32 33 34 35 36 37 38 39 40 41 42 43 44 45 46 47 48 49 50
000
ASUS43 KFSD 270502
RWRSD

WEATHER ROUNDUP FOR SOUTH DAKOTA
NATIONAL WEATHER SERVICE SIOUX FALLS SD
1100 PM CST WED NOV 26 2014

NOTE: "FAIR" INDICATES FEW OR NO CLOUDS BELOW 12,000 FEET WITH NO
SIGNIFICANT WEATHER AND/OR OBSTRUCTIONS TO VISIBILITY.


SDZ001>005-009-010-012>017-270600-
NORTHWEST AND NORTH CENTRAL SOUTH DAKOTA

CITY           SKY/WX    TMP DP  RH WIND       PRES   REMARKS
BUFFALO          N/A     20  15  81 S10       30.20F WCI   9
FAITH            N/A     14  10  84 SE8       30.33F WCI   3
MOBRIDGE       PTCLDY     3  -2  79 E12       30.42S WCI -13
$$

SDZ012>016-024>037-041>051-057-063-072>074-270600-
SOUTHWEST AND SOUTH CENTRAL SOUTH DAKOTA

CITY           SKY/WX    TMP DP  RH WIND       PRES   REMARKS
RAPID CTY ARPT CLOUDY    25  23  92 NE7       30.27F WCI  17
PIERRE         CLOUDY    13   8  81 E8        30.43S WCI   2
CUSTER         CLOUDY    23  19  85 SW3       30.15F
ELLSWORTH AFB  CLOUDY    23  22  94 E8        30.26R WCI  14
PHILIP         LGT SNOW  18  12  77 E13       30.37S WCI   5
PINE RIDGE     CLOUDY    29  24  82 NE5       30.27S WCI  24
WINNER         CLOUDY    18  10  71 E9        30.41R WCI   7
$$

SDZ004>011-016>023-039-040-270600-
NORTHEAST SOUTH DAKOTA

CITY           SKY/WX    TMP DP  RH WIND       PRES   REMARKS
ABERDEEN       PTCLDY    -6 -11  79 N6        30.52R WCI -19
WATERTOWN      PTCLDY    -6 -11  79 N5        30.44R WCI -17
SISSETON         N/A     -8 -12  83 N9        30.51R WCI -25
$$

SDZ017-020-022-023-036>040-048>070-270600-
SOUTHEAST SOUTH DAKOTA

CITY           SKY/WX    TMP DP  RH WIND       PRES   REMARKS
SIOUX FALLS    PTCLDY     6  -1  73 N12       30.45R WCI  -9
HURON          PTCLDY     0  -5  79 N7        30.50S WCI -13
MITCHELL       CLOUDY     9   3  77 N9        30.50R WCI  -4
YANKTON        CLEAR     10   3  72 NW9       30.48R WCI  -2
$$

ABBREVIATIONS USED IN REMARKS
   TC - TEMPERATURE IN CELSIUS
  WCI - WIND CHILL INDEX
   HX - HEAT INDEX
  VSB - VISIBILITY




USA.gov is the U.S. government's official web portal to all federal, state and local government web resources and services.